Tracking 19177 objects as of 25-May-2018
HD Live streaming from Space Station
objects crossing your sky now

CZ-2C R/B

Track CZ-2C R/B now!
10-day predictions


NORAD ID: 43173
Int'l Code: 2018-011E
Perigee: 401.4 km
Apogee: 608.1 km
Inclination: 35.0 °
Period: 94.6 minutes
Semi major axis: 6875 km
RCS: Unknown
Launch date: January 25, 2018
Source: People's Republic of China (PRC)
Launch site: Xichang Space Center, China (XSC)

Note: This is a ROCKET BODY
aabbcc
Your satellite tracking list
Your tracking list is empty




NASA's NSSDC Master Catalog

Two Line Element Set (TLE):
1 43173U 18011E   18144.50062947  .00001897  00000-0  59204-4 0  9999
2 43173  34.9676 154.7069 0150244   8.1285 352.1818 15.22730027 18182
Source of the keplerian elements: AFSPC